RH
61 62 63 59 54 54 58 62 64 64 63 63 65 66 64 58 56 58 56 52 51 50 48 48 47 44 45 45 44 43 42 41 40 41 40 39 39 40 36 34 35 34 28 24 22 20 18 19 20 18 16 16 16 17 21 22 20 20 22 25 25 24 25 25 24 24 23 23 23 23 23 22 22 21 20 21 22 23 23 23 24 25 24 24 24
65 65 66 62 57 58 62 64 67 67 64 61 62 66 68 66 64 63 61 58 58 56 52 51 51 48 47 49 50 50 47 44 42 42 43 43 41 41 40 40 44 44 39 35 33 29 24 22 23 21 18 16 14 17 20 21 21 21 21 23 23 24 24 25 24 24 23 22 22 22 23 22 22 22 22 22 22 21 20 20 20 21 21 21 21
67 67 67 65 62 64 66 66 67 68 65 61 60 62 67 71 71 67 66 66 65 63 58 54 55 54 52 52 53 55 54 50 44 41 43 45 45 45 43 42 44 44 42 42 42 39 33 30 28 26 23 20 19 20 21 20 21 21 20 21 22 23 24 26 26 25 24 23 22 23 22 22 22 21 21 21 21 20 20 19 18 18 19 18 18
71 72 71 69 68 69 70 68 70 71 69 65 62 61 63 67 68 66 68 68 65 66 66 59 58 59 58 56 56 56 55 51 46 44 43 43 46 49 50 47 46 46 45 45 46 44 40 38 36 33 30 26 24 25 26 26 24 22 20 20 21 21 23 25 26 27 26 25 23 22 22 21 21 20 20 19 19 19 19 18 18 19 19 18 18
72 73 73 73 75 75 73 73 73 72 72 72 71 69 71 73 71 68 69 67 63 69 74 67 61 61 61 59 58 57 56 54 50 48 45 44 46 49 50 49 48 48 49 48 46 45 44 44 43 41 37 33 31 31 31 28 24 22 22 21 21 20 20 21 23 23 23 24 23 22 21 21 20 20 20 19 19 18 18 18 18 17 17 18 18
72 72 71 71 73 73 74 77 77 75 76 77 76 76 78 79 77 73 72 72 69 70 73 71 68 66 62 59 57 56 58 58 56 52 46 44 46 46 46 46 46 46 48 48 46 45 44 44 45 45 43 39 37 35 32 28 25 24 24 23 21 21 21 21 21 21 21 21 21 20 20 19 20 20 20 20 20 19 19 18 18 17 17 17 18
66 67 68 68 68 68 72 76 77 77 77 75 76 79 81 82 80 75 73 75 75 72 70 68 67 69 67 63 59 56 55 55 57 57 51 46 45 44 43 42 41 41 43 45 46 44 40 39 40 41 43 43 41 39 36 32 29 26 27 27 26 25 25 24 24 23 23 22 21 20 20 19 19 19 18 18 19 19 19 19 19 18 19 19 20
60 63 66 68 67 65 68 71 72 72 70 69 70 74 77 79 81 77 72 72 74 76 74 67 65 70 70 66 64 60 56 54 55 58 62 61 55 51 51 49 44 42 41 42 44 42 40 38 37 37 38 39 39 39 38 36 33 30 28 26 25 24 24 25 25 25 24 22 22 21 20 20 19 19 19 18 18 18 19 20 21 21 20 19 17
61 64 66 66 65 62 62 67 71 69 68 69 69 70 70 71 74 75 73 72 72 75 75 70 68 69 67 65 66 63 59 54 51 55 65 68 63 60 60 57 53 49 45 43 43 43 41 41 40 39 40 40 39 39 37 34 34 35 32 27 24 23 23 23 24 24 24 23 22 21 20 19 19 19 19 19 20 19 20 21 21 21 21 20 17
57 60 60 60 60 58 56 59 63 63 66 67 67 68 68 67 69 71 72 72 72 73 72 70 67 64 61 62 64 62 59 55 52 56 63 66 64 63 61 58 58 58 54 50 47 45 42 39 37 37 39 40 40 39 38 35 35 37 37 33 31 29 26 24 23 23 23 23 23 22 21 20 20 20 20 20 21 21 21 22 21 21 22 21 20
56 56 56 54 54 56 53 50 49 51 55 60 64 67 69 70 72 72 71 70 70 71 70 67 64 61 58 60 60 57 56 55 54 56 60 63 63 61 59 59 59 58 59 60 56 50 45 39 36 36 37 39 38 36 36 37 39 42 43 40 37 36 33 29 26 24 22 22 24 24 23 23 22 22 21 21 21 22 22 22 23 23 23 22 21
59 58 57 55 57 59 57 53 51 51 52 56 61 64 65 67 71 71 72 72 71 73 71 66 65 62 59 60 61 58 56 57 59 61 62 62 60 56 54 56 59 61 65 69 62 52 45 41 38 37 36 38 38 37 38 41 45 50 52 49 44 41 40 36 32 29 26 23 23 24 25 25 24 24 24 24 24 24 24 24 24 24 24 23 23
60 62 63 63 65 65 62 60 59 57 56 56 58 59 58 60 61 63 66 66 63 64 64 64 66 65 61 61 62 57 55 57 61 65 67 65 62 58 53 57 64 66 64 63 57 47 41 38 36 34 33 33 34 36 40 46 51 52 54 54 52 50 49 45 41 37 34 30 26 24 25 26 26 26 26 26 27 27 28 28 27 26 25 24 23
53 56 59 62 65 66 65 65 63 62 60 59 58 58 58 60 60 60 60 59 55 55 57 59 64 63 62 61 59 53 52 55 60 65 69 68 67 65 60 60 65 63 56 57 57 49 40 35 33 32 32 30 29 31 37 44 49 50 50 51 53 54 54 52 49 47 44 40 36 31 30 30 30 29 27 28 29 30 31 31 30 28 27 26 26
45 46 47 49 53 57 61 61 60 59 58 58 58 58 57 58 58 57 55 53 52 52 52 51 51 52 54 55 54 51 52 56 57 58 60 60 62 65 63 62 66 66 62 59 56 47 40 36 33 31 31 31 32 34 37 41 44 46 49 50 51 53 54 54 53 52 50 47 45 42 39 38 37 36 34 33 32 32 32 32 31 30 28 27 27
41 40 40 41 42 47 50 50 49 49 49 50 50 49 49 50 50 48 47 45 44 45 44 42 39 41 44 45 45 44 45 48 48 48 50 52 56 61 64 66 66 62 58 55 52 47 44 42 40 36 34 36 39 40 39 38 35 37 41 45 48 52 53 54 55 54 51 48 46 45 42 40 39 39 39 38 37 36 35 33 32 32 32 31 29
41 39 39 38 39 41 42 42 42 41 41 42 41 40 40 39 40 40 39 38 37 37 38 38 37 37 39 40 40 40 42 44 44 44 47 51 57 60 60 61 60 56 57 60 58 53 51 49 45 41 40 44 46 43 39 35 31 31 34 36 41 46 50 53 54 54 51 49 46 45 43 40 38 37 36 36 37 38 38 37 36 35 35 34 32
43 41 39 38 38 39 40 40 39 39 39 38 38 37 37 37 38 38 37 36 37 36 37 41 41 39 38 39 38 40 43 44 43 44 45 49 56 57 55 58 62 63 64 63 58 54 54 51 45 43 46 49 48 43 40 36 34 34 35 36 38 43 46 49 52 52 50 48 46 45 44 42 40 39 38 37 36 36 37 37 38 38 37 35 34
45 43 41 40 40 40 41 40 40 40 39 38 37 37 37 38 39 40 39 39 38 36 38 42 44 43 42 43 42 42 44 44 43 45 45 47 54 56 56 61 65 63 61 58 55 55 55 51 45 43 45 45 42 39 38 37 37 37 38 39 40 42 44 46 48 50 50 48 45 43 41 40 40 40 41 40 39 37 36 34 35 37 37 36 35
45 42 40 40 41 42 42 42 43 43 43 41 40 40 39 39 40 41 41 40 38 38 42 44 46 49 49 49 46 44 44 43 42 43 44 47 53 53 52 57 60 60 59 57 54 53 53 49 45 41 40 40 38 38 38 37 37 37 38 39 38 39 42 42 41 42 44 44 41 38 37 37 38 38 39 39 40 39 39 37 36 36 36 35 34
45 43 42 41 42 44 45 46 47 48 48 47 44 43 42 41 40 41 42 43 43 47 49 48 48 50 50 47 43 41 40 40 42 47 49 50 50 49 53 60 65 64 61 57 53 50 49 47 44 40 40 41 40 41 40 38 37 36 35 34 34 33 34 34 34 35 38 39 38 36 35 35 36 37 38 38 38 38 39 39 38 38 37 36 35
48 46 45 45 44 46 48 50 52 51 51 49 47 45 45 44 43 42 43 45 47 50 51 48 46 46 45 44 42 41 39 39 42 46 48 47 47 49 54 59 61 61 59 56 52 50 49 48 47 46 46 46 45 43 41 38 37 35 34 32 31 29 29 30 30 33 36 38 38 37 37 37 37 38 39 39 40 39 39 39 39 38 38 38 38
52 51 50 48 47 48 50 52 53 51 51 51 50 49 48 46 44 44 45 45 46 46 47 46 46 45 44 44 42 39 38 39 40 41 43 44 45 45 46 50 53 57 57 55 52 52 52 52 53 52 50 48 44 40 37 35 33 32 32 31 31 30 31 31 32 34 35 37 38 38 37 37 37 39 41 42 41 41 39 37 37 37 37 38 39
54 52 51 50 48 49 52 54 53 51 53 54 54 54 52 48 45 46 46 46 47 47 46 47 47 45 44 44 43 41 41 43 44 44 43 44 45 47 51 56 60 61 58 53 48 47 50 54 54 51 45 41 37 34 33 32 31 31 31 30 30 32 33 35 36 36 35 36 37 38 38 37 37 38 39 39 39 38 36 35 36 37 38 40 41
52 51 51 50 48 48 50 52 53 51 52 53 53 53 50 47 45 45 45 46 46 45 45 46 46 44 46 48 47 46 46 47 47 46 44 44 50 58 64 68 69 65 58 50 46 47 51 53 50 44 40 38 37 36 37 37 37 36 36 35 36 37 38 39 39 38 36 36 35 37 37 38 38 37 38 38 38 38 38 39 41 42 42 43 43
43 43 43 43 42 42 42 44 47 48 48 49 50 49 47 45 43 42 43 45 44 43 43 42 41 43 48 50 50 50 51 51 50 51 50 51 59 70 75 73 68 61 55 52 53 54 53 48 44 42 42 41 41 41 42 42 42 41 40 40 40 40 41 41 41 40 40 38 37 37 38 38 39 40 41 41 42 43 45 47 47 47 47 46 46
36 34 33 31 31 32 32 35 37 39 41 44 44 43 42 41 38 37 40 42 40 39 38 36 37 42 47 49 49 50 52 54 57 63 68 70 75 83 85 77 67 60 59 61 60 54 48 44 43 44 44 43 43 44 43 42 41 42 42 41 41 41 41 42 42 42 42 40 40 39 40 42 44 44 45 46 47 49 52 52 51 49 50 51 50
30 29 29 26 26 27 29 32 34 35 37 39 37 36 36 34 33 34 36 36 36 37 37 37 41 46 50 53 54 52 51 54 59 66 74 80 83 82 80 75 68 62 60 58 53 46 43 44 45 45 43 42 43 43 43 43 43 44 44 45 45 46 46 46 47 47 47 45 44 42 44 49 52 51 50 51 52 54 55 54 54 54 56 57 56
28 29 28 29 30 32 34 36 37 38 39 38 36 34 35 36 37 39 38 36 38 42 45 47 52 56 58 61 61 60 59 61 65 70 77 82 82 76 71 67 61 56 52 49 45 42 44 46 45 44 43 42 43 43 44 45 45 45 46 47 48 48 50 50 51 52 53 53 51 47 47 52 55 54 54 55 56 57 58 59 59 60 61 61 61
30 30 33 34 35 36 38 37 37 38 38 38 36 36 39 43 46 49 49 44 43 46 49 53 59 64 66 65 66 69 72 73 74 78 81 79 75 69 63 57 52 49 46 43 41 42 44 44 43 42 42 43 43 44 44 45 45 46 47 48 48 49 50 51 52 53 55 55 56 54 52 54 56 57 57 58 58 59 60 61 62 63 64 65 67
29 30 33 36 35 37 38 38 38 39 39 40 41 43 47 52 54 55 53 46 42 45 47 51 58 67 73 75 78 82 83 82 80 80 76 71 66 62 57 52 48 44 41 38 39 42 43 43 42 42 43 44 45 45 46 47 49 50 50 51 53 53 54 54 55 55 56 56 57 58 58 58 58 59 58 58 58 60 63 65 67 70 73 75 78
31 31 33 34 35 36 37 39 43 46 48 51 55 54 54 55 55 53 51 48 47 50 55 61 69 75 80 83 86 86 83 80 77 73 68 64 62 57 52 47 42 36 34 35 39 41 41 41 42 43 43 45 47 48 50 51 53 55 56 57 58 59 60 61 60 59 60 60 60 60 60 60 59 59 59 60 62 67 72 75 78 82 84 86 87
33 34 35 36 38 40 43 46 52 57 59 60 61 59 56 54 53 53 54 55 56 62 71 79 82 80 79 80 82 80 77 74 71 68 65 61 57 51 45 40 35 31 31 35 39 39 39 41 43 44 46 48 50 52 55 56 59 60 61 62 64 66 67 69 68 67 67 67 66 65 65 64 64 65 67 70 72 76 82 87 89 90 90 90 90
43 45 47 48 50 54 57 58 62 69 72 67 61 59 60 58 57 57 59 59 62 70 82 89 88 83 80 80 78 75 72 70 67 64 61 55 48 42 38 35 33 32 33 36 38 39 40 41 43 46 49 52 54 57 60 62 64 65 67 69 71 73 74 75 75 75 74 74 75 75 75 75 76 78 81 83 85 88 93 95 93 91 91 92 93
56 56 58 61 67 73 76 74 74 78 77 69 64 66 69 67 65 68 73 74 74 77 83 87 87 85 81 79 75 71 68 65 62 58 52 45 39 36 33 33 33 34 35 36 37 39 41 43 46 49 53 56 60 63 65 67 69 72 75 78 80 81 83 83 84 85 85 85 85 86 86 88 90 90 92 94 95 96 97 96 94 93 95 97 97
64 68 73 78 83 86 85 83 83 80 73 67 70 79 85 85 82 84 88 90 86 82 80 80 81 80 77 74 71 66 62 57 52 47 42 37 35 34 33 32 33 34 34 35 37 40 42 45 48 53 58 62 65 68 71 74 78 81 84 86 87 87 89 89 91 92 93 93 93 94 96 97 98 97 96 96 96 97 97 97 96 96 97 98 98
83 88 91 93 95 95 92 87 81 74 70 75 84 90 91 89 85 84 87 88 85 80 78 78 79 77 74 70 66 60 54 48 42 39 37 35 35 33 31 31 32 33 34 36 38 40 43 47 52 57 63 67 71 76 80 84 87 89 90 91 91 92 94 95 95 96 97 98 98 99 99 99 99 98 97 96 97 97 97 97 97 97 97 96 95
98 99 99 99 100 99 92 83 75 73 79 89 91 85 78 76 76 78 82 84 83 81 79 78 77 74 70 65 58 51 45 40 37 37 36 34 33 31 30 30 32 34 35 37 38 41 45 50 56 62 67 72 79 84 88 91 93 94 95 95 96 97 98 98 99 99 100 100 100 100 101 101 100 99 98 98 97 97 97 97 96 95 93 90 87
100 100 100 99 97 91 82 78 79 84 88 87 80 72 71 74 78 82 84 83 82 82 80 77 74 70 64 56 49 43 40 38 38 37 34 31 30 30 31 32 34 36 36 37 39 43 47 53 59 66 72 79 85 90 93 95 97 97 97 98 99 99 99 100 100 100 100 100 100 99 98 97 96 95 93 91 91 91 91 91 89 87 85 85 84
100 98 94 90 85 81 78 79 82 81 78 75 73 74 78 82 84 85 84 83 81 78 73 68 62 55 50 45 42 42 41 38 36 33 30 29 30 31 32 34 36 37 37 38 40 44 50 56 63 70 77 84 90 93 96 98 98 98 98 99 99 100 100 100 100 100 99 99 96 95 94 95 94 91 87 83 82 83 85 85 86 87 88 90 92
93 90 85 81 80 79 79 80 80 78 78 81 83 83 85 86 86 84 82 79 74 67 61 55 49 44 42 42 42 42 40 35 31 30 30 30 30 31 33 36 37 37 37 39 41 45 51 58 66 73 81 88 93 96 98 99 99 99 100 100 100 100 100 100 100 99 98 96 95 95 96 96 92 88 85 83 84 87 90 92 94 96 96 97 97
89 85 82 80 80 80 81 84 85 86 87 87 86 86 86 87 85 81 76 71 64 56 51 47 43 41 42 43 42 39 36 31 29 30 31 30 29 31 33 36 37 37 37 39 41 47 53 59 67 76 84 90 94 98 100 100 99 100 100 100 100 100 100 100 100 98 96 96 96 98 97 93 90 89 89 89 90 92 95 96 97 97 98 99 99
91 90 87 85 82 82 83 84 86 87 88 88 88 88 87 84 81 76 70 62 54 48 46 44 41 41 42 41 38 35 33 31 31 31 32 30 28 28 32 35 34 34 36 38 42 47 53 59 68 78 85 91 95 99 100 100 100 100 100 101 100 100 100 100 99 98 98 98 96 95 94 92 92 95 95 93 92 93 95 96 96 97 98 99 99
91 91 90 88 86 85 84 84 85 86 87 88 88 86 83 80 76 70 61 53 48 46 45 44 42 41 40 38 34 32 32 34 34 33 32 30 28 28 32 33 31 30 32 37 41 47 52 58 68 78 85 91 97 99 99 100 100 100 100 100 100 100 100 100 99 100 100 97 92 92 93 93 95 98 97 93 93 95 96 96 97 98 98 99 100
90 91 90 89 88 86 84 84 84 85 85 85 84 82 79 74 67 59 51 47 44 43 42 41 40 39 38 36 34 31 31 34 36 35 33 33 32 30 30 30 27 27 30 35 40 46 51 58 66 75 82 89 96 99 100 99 100 100 100 100 100 100 100 100 100 101 98 93 91 95 98 98 99 99 97 94 94 96 97 98 99 99 99 100 100
91 90 88 87 85 84 82 82 83 84 83 82 80 76 71 64 56 50 46 44 42 41 40 39 38 38 37 34 34 33 33 36 36 36 34 32 30 28 26 24 23 25 29 33 38 45 51 56 62 70 78 86 93 98 99 100 99 100 100 99 100 100 100 99 101 100 94 90 93 99 101 99 98 98 96 93 92 93 96 99 100 99 99 99 100
92 89 85 83 83 83 82 82 82 81 80 77 74 70 64 56 50 47 44 43 41 39 38 37 36 35 33 32 32 34 34 34 35 35 33 29 27 26 23 21 22 26 29 31 36 43 50 54 59 65 73 81 89 94 97 99 99 100 99 99 100 100 99 100 101 97 90 88 93 99 100 97 96 96 94 91 89 91 94 95 96 98 99 97 97
92 88 84 82 82 81 81 81 80 78 76 74 70 64 58 52 49 47 45 43 40 37 36 36 34 30 28 29 33 35 32 31 32 35 34 32 28 26 23 19 21 26 30 31 33 40 47 52 56 60 67 74 82 90 93 95 97 99 98 99 100 99 99 101 100 94 89 89 92 95 97 96 93 91 91 90 91 94 95 92 90 92 95 94 93
90 87 84 82 80 80 80 80 78 76 73 69 64 59 55 52 51 49 44 39 35 33 35 36 34 31 30 33 36 35 32 31 33 34 34 32 29 26 22 19 20 26 31 31 31 38 45 50 54 57 60 65 74 84 88 91 94 95 97 99 100 99 99 100 98 93 91 94 95 95 96 97 93 90 89 91 93 97 98 94 92 91 92 92 93
83 84 83 81 80 81 80 79 76 73 70 65 61 58 56 54 51 46 41 37 34 33 34 36 37 37 37 37 35 34 32 33 35 34 32 31 28 25 22 19 19 26 32 32 31 35 42 47 52 55 56 58 66 76 83 88 91 92 94 97 99 98 98 98 96 93 94 98 97 95 96 97 95 92 90 91 94 96 97 97 98 97 95 92 92
74 77 78 77 77 77 77 75 73 70 66 62 58 56 55 52 48 43 40 37 36 35 34 33 34 35 34 32 32 33 34 35 36 35 32 31 29 26 22 19 19 25 32 34 32 32 37 43 49 53 53 54 59 67 75 83 88 90 91 93 96 97 98 97 95 94 96 98 97 95 95 96 98 98 96 95 96 97 97 97 98 100 99 97 93